QPF
0.00 0.00 0.00 0.01 0.00 0.00 0.00 0.01 0.01 0.02 0.03 0.02 0.03 0.03 0.04 0.05 0.03 0.02 0.02 0.02 0.01 0.00 0.00 0.01 0.01 0.01 0.00 0.00 0.01 0.01 0.02 0.02 0.01 0.01 0.03 0.02 0.08 0.07 0.06 0.06 0.05 0.04 0.03 0.02
0.00 0.00 0.00 0.00 0.01 0.00 0.00 0.00 0.01 0.01 0.02 0.02 0.02 0.02 0.03 0.04 0.04 0.03 0.03 0.04 0.03 0.01 0.01 0.01 0.01 0.00 0.00 0.00 0.00 0.01 0.01 0.01 0.01 0.01 0.03 0.04 0.06 0.05 0.06 0.07 0.08 0.06 0.04 0.02
0.00 0.00 0.00 0.00 0.00 0.00 0.00 0.00 0.01 0.01 0.01 0.02 0.03 0.03 0.03 0.03 0.03 0.04 0.07 0.09 0.05 0.02 0.01 0.01 0.01 0.01 0.01 0.01 0.01 0.01 0.00 0.00 0.01 0.01 0.02 0.03 0.05 0.03 0.04 0.05 0.08 0.05 0.04 0.04
0.01 0.00 0.00 0.00 0.01 0.01 0.01 0.01 0.01 0.00 0.01 0.02 0.02 0.04 0.03 0.04 0.03 0.04 0.07 0.07 0.04 0.02 0.01 0.02 0.03 0.02 0.01 0.01 0.01 0.01 0.00 0.00 0.01 0.01 0.01 0.01 0.02 0.02 0.03 0.04 0.06 0.05 0.03 0.03
0.01 0.00 0.00 0.00 0.01 0.01 0.00 0.00 0.00 0.00 0.01 0.02 0.03 0.03 0.02 0.02 0.03 0.04 0.06 0.05 0.03 0.02 0.01 0.02 0.03 0.02 0.01 0.00 0.00 0.00 0.01 0.01 0.00 0.01 0.01 0.01 0.01 0.02 0.03 0.04 0.04 0.05 0.06 0.07
0.00 0.00 0.00 0.00 0.00 0.00 0.00 0.00 0.00 0.00 0.01 0.03 0.05 0.04 0.01 0.02 0.03 0.05 0.06 0.05 0.04 0.02 0.02 0.01 0.01 0.01 0.01 0.00 0.00 0.00 0.00 0.00 0.00 0.01 0.01 0.02 0.02 0.02 0.02 0.03 0.04 0.05 0.06 0.06
0.00 0.00 0.00 0.00 0.00 0.00 0.00 0.00 0.01 0.02 0.02 0.03 0.04 0.02 0.01 0.03 0.04 0.03 0.05 0.05 0.04 0.03 0.03 0.02 0.02 0.01 0.01 0.01 0.01 0.00 0.01 0.01 0.01 0.01 0.02 0.02 0.03 0.02 0.03 0.03 0.04 0.05 0.06 0.07
0.00 0.00 0.00 0.00 0.00 0.00 0.00 0.00 0.01 0.02 0.03 0.03 0.02 0.01 0.01 0.02 0.03 0.02 0.03 0.04 0.08 0.06 0.02 0.01 0.02 0.03 0.02 0.02 0.02 0.02 0.02 0.02 0.03 0.03 0.02 0.03 0.03 0.03 0.03 0.02 0.03 0.04 0.05 0.06
0.00 0.00 0.00 0.00 0.00 0.00 0.00 0.01 0.01 0.01 0.01 0.01 0.01 0.01 0.02 0.02 0.02 0.02 0.02 0.03 0.13 0.10 0.02 0.02 0.03 0.03 0.03 0.03 0.03 0.04 0.04 0.04 0.04 0.04 0.04 0.05 0.05 0.03 0.03 0.02 0.02 0.03 0.04 0.05
0.00 0.00 0.00 0.00 0.00 0.00 0.00 0.00 0.01 0.02 0.01 0.01 0.01 0.01 0.01 0.02 0.02 0.02 0.02 0.02 0.05 0.06 0.03 0.02 0.02 0.03 0.03 0.02 0.02 0.04 0.05 0.06 0.06 0.06 0.04 0.04 0.03 0.03 0.04 0.05 0.05 0.04 0.03 0.03
0.00 0.00 0.00 0.00 0.00 0.00 0.00 0.01 0.01 0.02 0.02 0.01 0.02 0.01 0.01 0.01 0.02 0.02 0.03 0.02 0.02 0.02 0.01 0.02 0.02 0.02 0.02 0.02 0.02 0.03 0.03 0.04 0.04 0.03 0.02 0.01 0.01 0.01 0.01 0.03 0.04 0.04 0.04 0.04
0.00 0.00 0.00 0.00 0.00 0.00 0.00 0.01 0.00 0.01 0.01 0.01 0.02 0.03 0.02 0.02 0.02 0.03 0.03 0.03 0.03 0.02 0.01 0.04 0.05 0.02 0.02 0.01 0.01 0.01 0.01 0.01 0.01 0.01 0.01 0.01 0.01 0.01 0.01 0.02 0.01 0.01 0.02 0.03
0.00 0.00 0.00 0.00 0.00 0.00 0.00 0.00 0.00 0.00 0.00 0.01 0.01 0.01 0.01 0.02 0.05 0.07 0.05 0.03 0.03 0.01 0.02 0.03 0.05 0.02 0.02 0.01 0.01 0.01 0.00 0.01 0.01 0.01 0.00 0.01 0.01 0.01 0.02 0.02 0.02 0.02 0.01 0.02
0.00 0.00 0.00 0.00 0.00 0.00 0.00 0.00 0.00 0.00 0.00 0.01 0.01 0.01 0.01 0.02 0.05 0.07 0.07 0.05 0.04 0.03 0.02 0.02 0.02 0.02 0.01 0.01 0.01 0.01 0.01 0.01 0.01 0.01 0.01 0.01 0.01 0.01 0.01 0.01 0.02 0.02 0.02 0.01
0.00 0.00 0.00 0.00 0.00 0.00 0.01 0.00 0.00 0.00 0.01 0.01 0.01 0.01 0.01 0.01 0.04 0.06 0.04 0.05 0.05 0.05 0.04 0.02 0.02 0.01 0.01 0.01 0.01 0.01 0.01 0.01 0.01 0.01 0.02 0.02 0.02 0.04 0.04 0.03 0.03 0.03 0.03 0.03
0.00 0.00 0.00 0.00 0.00 0.00 0.00 0.00 0.00 0.01 0.01 0.01 0.01 0.01 0.01 0.01 0.02 0.02 0.02 0.02 0.02 0.04 0.04 0.02 0.01 0.01 0.01 0.01 0.01 0.01 0.02 0.02 0.02 0.03 0.05 0.05 0.06 0.07 0.05 0.05 0.05 0.06 0.06 0.06
0.00 0.01 0.01 0.00 0.00 0.00 0.00 0.00 0.01 0.01 0.01 0.00 0.01 0.01 0.02 0.02 0.02 0.03 0.03 0.01 0.01 0.02 0.02 0.01 0.01 0.01 0.01 0.01 0.01 0.01 0.02 0.03 0.03 0.04 0.04 0.03 0.03 0.03 0.04 0.05 0.05 0.05 0.06 0.07
0.01 0.01 0.01 0.01 0.01 0.01 0.00 0.00 0.00 0.01 0.01 0.01 0.01 0.01 0.02 0.03 0.03 0.03 0.03 0.01 0.01 0.01 0.01 0.01 0.01 0.01 0.01 0.01 0.01 0.01 0.02 0.02 0.02 0.02 0.02 0.02 0.02 0.03 0.04 0.04 0.03 0.04 0.04 0.04
0.01 0.01 0.01 0.01 0.01 0.00 0.01 0.01 0.01 0.01 0.01 0.01 0.02 0.04 0.05 0.05 0.04 0.03 0.03 0.02 0.01 0.01 0.01 0.02 0.02 0.03 0.03 0.02 0.01 0.01 0.02 0.02 0.02 0.01 0.02 0.02 0.03 0.03 0.03 0.03 0.02 0.02 0.03 0.04
0.00 0.00 0.01 0.01 0.02 0.02 0.01 0.01 0.01 0.01 0.03 0.02 0.03 0.05 0.05 0.05 0.06 0.06 0.03 0.01 0.01 0.01 0.01 0.04 0.05 0.03 0.04 0.04 0.05 0.03 0.02 0.01 0.01 0.01 0.02 0.02 0.02 0.02 0.03 0.03 0.03 0.04 0.04 0.05
0.01 0.01 0.01 0.01 0.02 0.02 0.01 0.02 0.02 0.02 0.05 0.08 0.05 0.06 0.06 0.05 0.04 0.04 0.03 0.02 0.02 0.02 0.02 0.02 0.02 0.02 0.02 0.03 0.04 0.04 0.02 0.02 0.02 0.03 0.03 0.04 0.04 0.04 0.05 0.06 0.07 0.07 0.07 0.08
0.02 0.02 0.01 0.01 0.02 0.02 0.02 0.02 0.04 0.05 0.06 0.10 0.06 0.04 0.03 0.02 0.03 0.03 0.02 0.02 0.03 0.02 0.02 0.02 0.02 0.02 0.02 0.02 0.02 0.03 0.03 0.03 0.03 0.03 0.04 0.05 0.07 0.06 0.06 0.08 0.08 0.10 0.11 0.11
0.01 0.02 0.03 0.03 0.05 0.05 0.03 0.03 0.06 0.09 0.10 0.09 0.05 0.04 0.03 0.02 0.03 0.03 0.02 0.03 0.03 0.03 0.03 0.03 0.03 0.03 0.03 0.03 0.03 0.03 0.03 0.03 0.03 0.04 0.05 0.06 0.09 0.09 0.08 0.09 0.10 0.10 0.10 0.10
0.02 0.03 0.03 0.04 0.05 0.07 0.05 0.04 0.06 0.09 0.10 0.10 0.10 0.11 0.07 0.05 0.04 0.04 0.02 0.03 0.04 0.06 0.06 0.05 0.04 0.03 0.03 0.03 0.03 0.02 0.03 0.04 0.03 0.03 0.03 0.05 0.08 0.11 0.10 0.12 0.12 0.11 0.10 0.10
0.03 0.04 0.05 0.05 0.04 0.07 0.08 0.07 0.08 0.09 0.09 0.08 0.09 0.14 0.12 0.08 0.06 0.04 0.03 0.05 0.11 0.15 0.09 0.06 0.05 0.03 0.03 0.03 0.04 0.04 0.05 0.05 0.03 0.03 0.03 0.04 0.07 0.11 0.13 0.14 0.15 0.16 0.14 0.10
0.03 0.04 0.06 0.07 0.05 0.04 0.05 0.05 0.07 0.07 0.07 0.09 0.08 0.09 0.10 0.09 0.07 0.05 0.05 0.11 0.13 0.11 0.08 0.08 0.06 0.05 0.04 0.04 0.05 0.06 0.07 0.06 0.05 0.04 0.04 0.06 0.08 0.09 0.11 0.10 0.10 0.10 0.08 0.05
MSLP
1005.86 1006.78 1007.42 1007.76 1007.83 1007.69 1007.42 1007.10 1006.78 1006.49 1006.22 1005.96 1005.70 1005.41 1005.11 1004.80 1004.53 1004.34 1004.26 1004.31 1004.50 1004.80 1005.20 1005.65 1006.14 1006.63 1007.14 1007.66 1008.23 1008.85 1009.53 1010.25 1011.00 1011.74 1012.41 1012.98 1013.42 1013.72 1013.91 1014.01 1014.07 1014.13 1014.24 1014.42
1006.35 1007.06 1007.49 1007.66 1007.63 1007.48 1007.29 1007.13 1007.01 1006.92 1006.82 1006.65 1006.39 1006.01 1005.52 1004.97 1004.45 1004.01 1003.73 1003.65 1003.77 1004.07 1004.50 1005.01 1005.54 1006.05 1006.55 1007.05 1007.56 1008.13 1008.78 1009.50 1010.28 1011.07 1011.82 1012.48 1013.01 1013.39 1013.61 1013.73 1013.78 1013.83 1013.91 1014.07
1006.51 1006.97 1007.19 1007.21 1007.12 1007.02 1006.98 1007.04 1007.19 1007.35 1007.45 1007.40 1007.14 1006.65 1005.96 1005.14 1004.31 1003.58 1003.05 1002.78 1002.80 1003.06 1003.52 1004.08 1004.67 1005.24 1005.77 1006.27 1006.76 1007.31 1007.93 1008.65 1009.45 1010.29 1011.11 1011.86 1012.47 1012.93 1013.22 1013.38 1013.45 1013.51 1013.60 1013.75
1006.39 1006.61 1006.64 1006.55 1006.45 1006.46 1006.63 1006.97 1007.42 1007.87 1008.18 1008.25 1007.99 1007.37 1006.45 1005.33 1004.15 1003.09 1002.27 1001.78 1001.65 1001.84 1002.30 1002.91 1003.57 1004.21 1004.80 1005.33 1005.85 1006.39 1007.01 1007.73 1008.55 1009.42 1010.30 1011.12 1011.82 1012.35 1012.71 1012.93 1013.06 1013.15 1013.26 1013.42
1006.18 1006.17 1006.03 1005.88 1005.83 1005.99 1006.40 1007.04 1007.79 1008.52 1009.04 1009.21 1008.93 1008.18 1007.02 1005.58 1004.05 1002.64 1001.50 1000.76 1000.45 1000.55 1000.99 1001.63 1002.36 1003.08 1003.75 1004.34 1004.89 1005.46 1006.08 1006.81 1007.63 1008.52 1009.44 1010.31 1011.07 1011.67 1012.11 1012.40 1012.58 1012.72 1012.86 1013.05
1006.07 1005.87 1005.61 1005.43 1005.45 1005.78 1006.42 1007.33 1008.36 1009.32 1010.01 1010.25 1009.94 1009.05 1007.66 1005.92 1004.07 1002.32 1000.88 999.89 999.40 999.39 999.78 1000.43 1001.21 1002.01 1002.74 1003.40 1004.00 1004.59 1005.22 1005.94 1006.76 1007.65 1008.57 1009.46 1010.26 1010.92 1011.42 1011.77 1012.02 1012.20 1012.39 1012.61
1006.25 1005.89 1005.54 1005.35 1005.45 1005.92 1006.75 1007.86 1009.09 1010.21 1011.01 1011.28 1010.92 1009.90 1008.32 1006.35 1004.22 1002.21 1000.52 999.31 998.65 998.53 998.86 999.50 1000.30 1001.14 1001.93 1002.63 1003.27 1003.87 1004.50 1005.19 1005.98 1006.84 1007.74 1008.63 1009.44 1010.12 1010.66 1011.07 1011.36 1011.60 1011.82 1012.08
1006.81 1006.34 1005.93 1005.74 1005.89 1006.43 1007.36 1008.59 1009.91 1011.09 1011.91 1012.17 1011.75 1010.64 1008.93 1006.80 1004.51 1002.33 1000.48 999.12 998.33 998.11 998.37 998.97 999.75 1000.59 1001.39 1002.10 1002.74 1003.33 1003.92 1004.58 1005.31 1006.12 1006.98 1007.83 1008.62 1009.31 1009.87 1010.31 1010.64 1010.92 1011.18 1011.46
1007.74 1007.20 1006.75 1006.55 1006.70 1007.25 1008.18 1009.38 1010.67 1011.81 1012.57 1012.76 1012.28 1011.12 1009.37 1007.20 1004.88 1002.65 1000.75 999.33 998.47 998.17 998.36 998.88 999.61 1000.39 1001.15 1001.82 1002.41 1002.95 1003.50 1004.08 1004.74 1005.48 1006.27 1007.06 1007.82 1008.49 1009.06 1009.52 1009.88 1010.20 1010.49 1010.80
1008.92 1008.34 1007.88 1007.64 1007.74 1008.22 1009.04 1010.11 1011.24 1012.22 1012.85 1012.95 1012.42 1011.25 1009.55 1007.46 1005.23 1003.09 1001.26 999.87 999.01 998.67 998.77 999.21 999.82 1000.50 1001.15 1001.74 1002.24 1002.70 1003.15 1003.66 1004.23 1004.88 1005.59 1006.32 1007.03 1007.68 1008.24 1008.71 1009.11 1009.45 1009.78 1010.11
1010.13 1009.57 1009.10 1008.82 1008.83 1009.16 1009.78 1010.61 1011.49 1012.23 1012.67 1012.64 1012.07 1010.96 1009.38 1007.49 1005.47 1003.54 1001.89 1000.62 999.81 999.46 999.49 999.81 1000.28 1000.81 1001.31 1001.76 1002.14 1002.48 1002.84 1003.24 1003.72 1004.28 1004.90 1005.57 1006.23 1006.85 1007.41 1007.90 1008.33 1008.71 1009.07 1009.44
1011.17 1010.66 1010.20 1009.88 1009.77 1009.91 1010.28 1010.81 1011.38 1011.83 1012.04 1011.88 1011.29 1010.27 1008.89 1007.25 1005.54 1003.91 1002.50 1001.42 1000.71 1000.37 1000.34 1000.53 1000.84 1001.18 1001.51 1001.79 1002.02 1002.24 1002.48 1002.78 1003.17 1003.64 1004.19 1004.79 1005.41 1006.01 1006.57 1007.09 1007.55 1007.98 1008.39 1008.80
1011.90 1011.46 1011.03 1010.68 1010.46 1010.40 1010.50 1010.71 1010.94 1011.10 1011.07 1010.78 1010.18 1009.28 1008.12 1006.79 1005.42 1004.12 1003.01 1002.14 1001.56 1001.24 1001.15 1001.21 1001.35 1001.52 1001.66 1001.77 1001.86 1001.95 1002.08 1002.29 1002.58 1002.97 1003.45 1003.99 1004.56 1005.14 1005.71 1006.25 1006.76 1007.25 1007.72 1008.17
1012.27 1011.92 1011.54 1011.17 1010.85 1010.61 1010.46 1010.36 1010.28 1010.15 1009.91 1009.50 1008.90 1008.12 1007.18 1006.16 1005.13 1004.17 1003.34 1002.70 1002.24 1001.95 1001.81 1001.76 1001.74 1001.73 1001.71 1001.67 1001.62 1001.61 1001.64 1001.76 1001.97 1002.28 1002.69 1003.16 1003.69 1004.25 1004.82 1005.38 1005.94 1006.49 1007.02 1007.54
1012.34 1012.08 1011.75 1011.38 1010.99 1010.61 1010.25 1009.90 1009.55 1009.17 1008.74 1008.23 1007.63 1006.96 1006.22 1005.47 1004.73 1004.07 1003.50 1003.04 1002.69 1002.43 1002.24 1002.09 1001.95 1001.80 1001.64 1001.48 1001.34 1001.23 1001.19 1001.23 1001.37 1001.61 1001.94 1002.34 1002.81 1003.33 1003.89 1004.48 1005.07 1005.68 1006.28 1006.86
1012.26 1012.07 1011.79 1011.42 1010.99 1010.50 1009.99 1009.44 1008.88 1008.31 1007.72 1007.13 1006.52 1005.92 1005.34 1004.79 1004.29 1003.85 1003.47 1003.15 1002.88 1002.64 1002.41 1002.19 1001.95 1001.70 1001.45 1001.21 1001.00 1000.84 1000.74 1000.73 1000.81 1000.97 1001.21 1001.54 1001.94 1002.41 1002.94 1003.52 1004.15 1004.80 1005.46 1006.11
1012.20 1012.03 1011.77 1011.41 1010.94 1010.39 1009.76 1009.08 1008.37 1007.65 1006.94 1006.27 1005.65 1005.09 1004.60 1004.18 1003.82 1003.52 1003.26 1003.03 1002.80 1002.56 1002.30 1002.02 1001.72 1001.41 1001.11 1000.83 1000.60 1000.41 1000.29 1000.24 1000.26 1000.35 1000.52 1000.76 1001.08 1001.49 1001.98 1002.55 1003.19 1003.87 1004.58 1005.28
1012.28 1012.09 1011.80 1011.42 1010.92 1010.31 1009.61 1008.83 1008.01 1007.19 1006.40 1005.66 1005.00 1004.44 1003.98 1003.61 1003.31 1003.07 1002.86 1002.65 1002.42 1002.17 1001.88 1001.56 1001.23 1000.90 1000.58 1000.31 1000.08 999.91 999.79 999.72 999.71 999.75 999.84 1000.01 1000.26 1000.60 1001.04 1001.59 1002.22 1002.93 1003.67 1004.41
1012.54 1012.27 1011.92 1011.48 1010.93 1010.26 1009.50 1008.65 1007.76 1006.86 1005.99 1005.18 1004.47 1003.87 1003.39 1003.00 1002.70 1002.45 1002.22 1001.98 1001.73 1001.44 1001.12 1000.78 1000.43 1000.11 999.81 999.57 999.38 999.24 999.15 999.10 999.08 999.10 999.16 999.28 999.48 999.77 1000.17 1000.70 1001.33 1002.05 1002.81 1003.59
1012.92 1012.53 1012.08 1011.54 1010.91 1010.18 1009.35 1008.44 1007.48 1006.51 1005.56 1004.69 1003.91 1003.24 1002.69 1002.25 1001.89 1001.58 1001.29 1001.00 1000.69 1000.36 1000.01 999.66 999.32 999.01 998.76 998.57 998.45 998.37 998.34 998.34 998.36 998.40 998.46 998.58 998.76 999.04 999.44 999.96 1000.59 1001.32 1002.10 1002.90
1013.30 1012.76 1012.18 1011.53 1010.79 1009.97 1009.06 1008.08 1007.04 1006.00 1004.98 1004.02 1003.16 1002.41 1001.77 1001.24 1000.79 1000.41 1000.05 999.69 999.33 998.96 998.58 998.22 997.90 997.64 997.44 997.32 997.27 997.28 997.34 997.43 997.53 997.64 997.77 997.94 998.17 998.48 998.90 999.44 1000.09 1000.83 1001.63 1002.45
1013.54 1012.86 1012.14 1011.35 1010.50 1009.57 1008.56 1007.48 1006.36 1005.23 1004.13 1003.09 1002.13 1001.29 1000.56 999.93 999.40 998.94 998.51 998.10 997.70 997.30 996.92 996.57 996.28 996.06 995.93 995.89 995.93 996.05 996.23 996.44 996.66 996.90 997.15 997.42 997.75 998.14 998.63 999.21 999.89 1000.66 1001.47 1002.30
1013.55 1012.75 1011.89 1010.98 1010.00 1008.95 1007.83 1006.65 1005.43 1004.20 1003.00 1001.86 1000.82 999.88 999.07 998.37 997.77 997.25 996.78 996.34 995.93 995.53 995.17 994.86 994.61 994.45 994.40 994.44 994.59 994.83 995.14 995.49 995.87 996.27 996.68 997.11 997.57 998.08 998.66 999.31 1000.03 1000.82 1001.64 1002.46
1013.30 1012.42 1011.47 1010.44 1009.35 1008.18 1006.94 1005.65 1004.32 1002.99 1001.69 1000.45 999.32 998.31 997.42 996.67 996.04 995.49 995.02 994.60 994.22 993.87 993.56 993.31 993.13 993.04 993.07 993.21 993.46 993.82 994.26 994.77 995.32 995.89 996.47 997.07 997.68 998.32 999.00 999.72 1000.49 1001.29 1002.10 1002.91
1012.86 1011.94 1010.93 1009.83 1008.64 1007.37 1006.03 1004.63 1003.19 1001.75 1000.36 999.04 997.83 996.75 995.83 995.06 994.42 993.90 993.48 993.12 992.81 992.55 992.32 992.16 992.07 992.07 992.18 992.41 992.76 993.22 993.79 994.43 995.13 995.85 996.60 997.35 998.10 998.86 999.63 1000.41 1001.20 1001.99 1002.78 1003.55
1012.33 1011.43 1010.40 1009.27 1008.03 1006.69 1005.26 1003.77 1002.24 1000.72 999.24 997.85 996.58 995.47 994.54 993.78 993.18 992.73 992.38 992.13 991.93 991.79 991.68 991.63 991.64 991.74 991.93 992.23 992.66 993.20 993.85 994.59 995.39 996.23 997.09 997.95 998.81 999.64 1000.46 1001.26 1002.05 1002.82 1003.57 1004.28
Thickness
5835 5814 5802 5811 5819 5819 5816 5811 5807 5818 5838 5829 5819 5816 5821 5828 5826 5823 5820 5820 5819 5820 5822 5822 5820 5818 5814 5809 5805 5802 5798 5795 5791 5786 5782 5779 5776 5776 5775 5775 5773 5772 5770 5768
5809 5802 5820 5830 5830 5827 5818 5809 5809 5819 5834 5829 5817 5816 5825 5829 5829 5830 5826 5822 5821 5819 5818 5820 5819 5817 5814 5810 5807 5803 5800 5797 5793 5790 5787 5783 5780 5778 5777 5775 5774 5772 5770 5768
5798 5813 5832 5827 5822 5818 5815 5811 5811 5812 5823 5826 5815 5802 5812 5824 5830 5830 5830 5829 5826 5824 5820 5820 5820 5818 5815 5811 5809 5807 5802 5799 5795 5792 5788 5784 5780 5777 5774 5773 5772 5772 5771 5769
5805 5822 5825 5819 5816 5817 5804 5826 5825 5820 5804 5792 5803 5772 5797 5813 5817 5822 5825 5827 5828 5828 5826 5823 5821 5819 5817 5815 5812 5809 5804 5800 5797 5793 5788 5782 5777 5773 5773 5773 5773 5772 5770 5769
5801 5818 5817 5812 5820 5825 5818 5834 5826 5819 5803 5788 5793 5776 5786 5807 5805 5816 5824 5829 5831 5832 5829 5826 5825 5822 5820 5818 5813 5810 5805 5801 5798 5794 5789 5784 5779 5777 5775 5774 5771 5769 5769 5768
5809 5826 5825 5823 5833 5834 5832 5822 5813 5800 5784 5766 5783 5777 5777 5799 5810 5819 5826 5831 5832 5832 5831 5829 5828 5824 5820 5817 5813 5810 5804 5801 5798 5794 5790 5785 5781 5777 5774 5771 5769 5768 5766 5765
5795 5812 5826 5832 5817 5821 5817 5786 5760 5756 5747 5755 5782 5778 5783 5816 5828 5830 5829 5831 5833 5832 5829 5827 5824 5821 5818 5815 5812 5809 5804 5800 5797 5794 5791 5787 5783 5779 5775 5772 5769 5767 5764 5763
5769 5776 5809 5822 5813 5803 5803 5785 5753 5741 5739 5753 5774 5772 5795 5827 5834 5838 5837 5837 5834 5831 5830 5828 5827 5824 5820 5817 5813 5809 5804 5800 5797 5793 5790 5788 5784 5780 5777 5774 5771 5768 5766 5764
5766 5772 5811 5823 5827 5815 5797 5784 5783 5759 5754 5748 5756 5777 5801 5822 5825 5828 5830 5831 5829 5830 5830 5828 5826 5824 5821 5817 5814 5810 5805 5801 5798 5794 5790 5787 5783 5780 5777 5774 5771 5768 5766 5764
5781 5771 5793 5814 5819 5815 5806 5794 5768 5752 5737 5732 5749 5762 5774 5798 5807 5816 5821 5822 5825 5828 5828 5826 5824 5821 5818 5816 5813 5810 5806 5801 5798 5793 5790 5787 5783 5780 5776 5773 5769 5766 5763 5761
5783 5764 5774 5788 5789 5785 5790 5783 5765 5748 5745 5732 5731 5754 5800 5801 5808 5810 5816 5820 5823 5824 5825 5824 5821 5820 5816 5813 5810 5806 5803 5798 5794 5791 5788 5785 5781 5778 5775 5771 5768 5765 5762 5759
5776 5756 5750 5769 5793 5803 5793 5782 5765 5745 5740 5738 5734 5755 5811 5810 5812 5812 5812 5816 5820 5820 5822 5821 5818 5815 5811 5808 5805 5802 5799 5795 5792 5789 5785 5782 5778 5775 5771 5768 5766 5763 5759 5756
5769 5746 5731 5741 5759 5777 5778 5779 5772 5757 5744 5733 5731 5754 5803 5805 5807 5809 5809 5811 5813 5814 5815 5814 5812 5810 5807 5804 5802 5799 5796 5793 5790 5786 5781 5777 5774 5770 5767 5765 5762 5759 5756 5753
5770 5740 5730 5726 5737 5755 5760 5769 5770 5754 5735 5735 5745 5760 5782 5791 5795 5799 5802 5805 5807 5808 5807 5806 5805 5803 5802 5800 5797 5795 5792 5790 5786 5782 5777 5772 5769 5767 5764 5761 5758 5755 5753 5749
5753 5734 5739 5743 5755 5761 5761 5764 5767 5760 5752 5745 5755 5764 5777 5788 5792 5795 5798 5798 5798 5797 5797 5798 5797 5797 5796 5794 5792 5790 5788 5786 5782 5777 5772 5769 5766 5763 5759 5756 5753 5751 5748 5745
5736 5728 5730 5734 5749 5751 5752 5761 5764 5763 5765 5761 5762 5764 5783 5788 5790 5788 5790 5791 5790 5789 5790 5792 5792 5792 5790 5789 5787 5784 5782 5780 5777 5772 5768 5765 5761 5757 5753 5750 5748 5744 5741 5739
5718 5715 5708 5707 5728 5733 5728 5751 5757 5759 5765 5762 5754 5764 5776 5776 5779 5780 5783 5786 5785 5784 5785 5785 5786 5785 5785 5784 5783 5779 5777 5775 5771 5767 5763 5759 5755 5751 5749 5746 5742 5739 5736 5733
5711 5703 5693 5694 5706 5697 5727 5756 5761 5755 5755 5762 5762 5767 5772 5772 5772 5775 5779 5779 5778 5779 5778 5777 5777 5778 5778 5777 5776 5774 5771 5767 5763 5759 5756 5753 5750 5746 5743 5739 5736 5733 5730 5727
5714 5700 5686 5680 5682 5695 5724 5745 5750 5742 5737 5753 5755 5758 5761 5765 5762 5760 5770 5773 5773 5773 5772 5772 5772 5772 5771 5770 5768 5765 5762 5759 5755 5752 5749 5747 5744 5740 5736 5732 5729 5727 5723 5720
5703 5697 5683 5675 5675 5679 5709 5739 5751 5740 5720 5744 5749 5748 5749 5750 5736 5742 5759 5763 5764 5766 5766 5766 5765 5764 5762 5762 5760 5755 5752 5749 5746 5745 5743 5741 5738 5733 5729 5726 5723 5720 5717 5713
5678 5675 5672 5669 5668 5682 5713 5733 5739 5709 5709 5733 5740 5742 5742 5737 5738 5745 5751 5753 5755 5756 5757 5758 5756 5754 5753 5752 5749 5744 5742 5740 5740 5737 5734 5732 5729 5725 5722 5718 5715 5712 5708 5704
5662 5659 5660 5660 5659 5673 5711 5717 5709 5706 5719 5725 5729 5733 5733 5735 5737 5739 5742 5743 5744 5745 5746 5747 5744 5743 5742 5741 5738 5735 5732 5733 5732 5729 5725 5722 5720 5717 5714 5709 5706 5702 5698 5694
5659 5661 5659 5662 5668 5689 5702 5704 5707 5710 5710 5714 5718 5722 5724 5725 5727 5729 5730 5731 5732 5734 5735 5735 5734 5732 5731 5730 5729 5726 5725 5724 5722 5719 5716 5713 5709 5706 5703 5699 5695 5691 5687 5684
5656 5664 5660 5661 5673 5685 5692 5698 5701 5704 5705 5708 5711 5713 5716 5715 5717 5717 5718 5719 5720 5722 5723 5723 5722 5720 5719 5719 5719 5717 5716 5715 5713 5709 5706 5703 5699 5696 5692 5689 5686 5682 5678 5674
5649 5652 5649 5652 5666 5673 5681 5686 5691 5695 5698 5700 5702 5704 5706 5706 5705 5706 5706 5708 5709 5710 5711 5712 5710 5709 5709 5709 5708 5708 5707 5705 5702 5699 5696 5693 5690 5685 5682 5679 5676 5674 5671 5669
5645 5643 5641 5645 5659 5660 5666 5678 5683 5683 5685 5688 5689 5689 5693 5695 5694 5694 5694 5697 5698 5698 5699 5700 5700 5699 5698 5697 5697 5696 5696 5695 5692 5687 5685 5682 5678 5675 5671 5668 5664 5664 5662 5660